247  
ASUS44 KMEG 201110  
RWRMEG  
MEMPHIS CWA HOURLY WEATHER ROUNDUP  
NATIONAL WEATHER SERVICE MEMPHIS TN  
500 AM CST THU FEB 20 2020  
   
..WEST TENNESSEE
 
 
 
CITY SKY/WX TMP DP RH WIND PRES REMARKS
 
MEMPHIS INTL LGTSLEET 40 31 70 NE14 30.35R WCI 32  
NWS MEMPHIS N/A 41 N/A N/A MISG N/A  
JACKSON CLOUDY 41 29 62 NE12 30.38R  
COVINGTON CLOUDY 41 30 65 NE15G23 30.38S  
SOMERVILLE CLOUDY 39 32 75 N7 30.35R WCI 34  
BOLIVAR CLOUDY 41 30 65 N8 30.34R  
LEXINGTON CLOUDY 43 25 49 N10G18 30.35R  
SELMER CLOUDY 43 27 52 N13G21 30.33R  
DYERSBURG FAIR 40 27 59 NE15G21 30.44R WCI 32  
UNION CITY CLOUDY 39 27 60 N14 30.43R WCI 31  
PARIS CLOUDY 39 27 60 N10 30.41R WCI 32  
HUNTINGDON CLOUDY 41 27 56 NE9G18 30.39S  
 
   
..EASTERN ARKANSAS
 
 
 
CITY SKY/WX TMP DP RH WIND PRES REMARKS
 
JONESBORO CLOUDY 40 27 59 NE16G24 30.43R WCI 31  
WEST MEMPHIS LGT RAIN 40 36 86 NE12 30.35F WCI 33  
BATESVILLE CLOUDY N/A N/A N/A CALM 30.46R  
NEWPORT LGT RAIN 38 32 79 N13 30.45R WCI 30  
WALNUT RIDGE CLOUDY 38 29 70 N17 30.46R WCI 28  
BLYTHEVILLE CLOUDY 38 29 70 N18 30.42R WCI 28  
SEARCY LGT RAIN 39 32 76 NE17 30.41R WCI 30  
STUTTGART LGT RAIN 39 35 86 NE24G31 30.36S WCI 28  
PINE BLUFF LGT RAIN 39 37 92 N16 30.36R WCI 30  
MONTICELLO LGT RAIN 41 37 86 N9G22 30.30R  
 
   
..NORTH MISSISSIPPI
 
 
 
CITY SKY/WX TMP DP RH WIND PRES REMARKS
 
TUPELO RAIN 42 37 82 N13 30.29R  
OXFORD LGT RAIN 37 36 93 NE10 30.32S WCI 30  
BATESVILLE RAIN 39 37 93 NE6G14 30.31F WCI 35  
OLIVE BRANCH CLOUDY 39 34 81 NE10G16 30.34S WCI 32  
TUNICA LGT RAIN 39 34 81 N15 30.35R WCI 31  
CLARKSDALE N/A 41 41 100 MISG 30.32R FOG  
CORINTH LGT RAIN 43 30 61 N10 30.32R  
GREENWOOD RAIN 42 39 89 NE15 30.23F  
COLUMBUS RAIN 43 40 90 N13 30.25R  
STARKVILLE LGT RAIN 41 39 93 N10G17 30.25R  
GOLDEN TRIANGL LGT RAIN 43 42 97 N15 30.24R  
 
   
..SOUTHEAST MISSOURI
 
 
 
CITY SKY/WX TMP DP RH WIND PRES REMARKS
 
KENNETT CLOUDY 37 30 75 NE20G25 30.45R WCI 27  
MALDEN FAIR 37 28 70 MISG 30.49R  
WEST PLAINS CLOUDY 32 29 88 N10 30.49R WCI 24  
POPLAR BLUFF CLOUDY 36 27 69 N13 30.49R WCI 27  
CAPE GIRARDEAU CLOUDY 35 26 69 N14 30.50R WCI 26  
 
   
..NORTHWEST ALABAMA
 
 
 
CITY SKY/WX TMP DP RH WIND PRES REMARKS
 
MUSCLE SHOALS LGT RAIN 43 33 68 N9 30.30R  
 
   
..MIDDLE TENNESSEE
 
 
 
CITY SKY/WX TMP DP RH WIND PRES REMARKS
 
NASHVILLE CLOUDY 42 25 50 N12 30.38R  
CLARKSVILLE CLOUDY 39 26 59 NE8 30.42R WCI 33  
DICKSON CLOUDY 37 25 60 VRB7G16 30.36R WCI 32  
COLUMBIA CLOUDY 43 25 49 NE9 30.32S  
LAWRENCEBURG CLOUDY 41 28 60 N12G18 30.29S  
LEWISBURG CLOUDY 41 27 56 NE7 30.33S  
 
   
..WESTERN KENTUCKY
 
 
 
CITY SKY/WX TMP DP RH WIND PRES REMARKS
 
PADUCAH CLOUDY 36 25 64 N9 30.48R WCI 29  
FORT CAMPBELL FAIR 38 26 61 N14 30.42R WCI 30  
 
   
..CENTRAL ARKANSAS
 
 
 
CITY SKY/WX TMP DP RH WIND PRES REMARKS
 
LITTLE ROCK LGT RAIN 39 33 79 NE14 30.40R WCI 31  
 
SKY/WX REPORTED AS FAIR MEANS FEW OR NO CLOUDS BELOW  
12 THOUSAND FEET.  
 
 
 
CLICK HERE TO GO TO PREVIOUS BULLETINS.

The Nexlab TN Page
The Nexlab MS Page
The Nexlab AR Page Main Text Page